Fryeburg, ME

1:20 AM EDT on July 25, 2017 (GMT -0400)
Eastern Slopes Regional

Weather History for KIZG - March, 2014

Change the Weather History Date:

Friday, March 21, 2014

  Actual Average Record
Temperature  
Mean Temperature 33 °F -  
Max Temperature 37 °F 39 °F 84 °F (2012)
Min Temperature 30 °F 20 °F 1 °F (2007)
Degree Days  
Heating Degree Days 32    
Moisture  
Dew Point 17 °F    
Average Humidity 50    
Maximum Humidity 59    
Minimum Humidity 43    
Precipitation  
Precipitation 0.00 in - - ()
Sea Level Pressure  
Sea Level Pressure 29.78 in    
Wind  
Wind Speed 9 mph (West)    
Max Wind Speed 17 mph    
Max Gust Speed 29 mph    
Visibility 10 miles    
Events      
Averages and records for this station are not official NWS values.
T = Trace of Precipitation, MM = Missing Value Source: NWS Daily Summary

Daily Weather History Graph

Daily Weather History Graph

Search for Another Location

Airport or City:

Trip Planner

Search our weather history database for the weather conditions in past years. The results will help you decide how hot, cold, wet, or windy it might be!

Date:

Astronomy

Mar. 21, 2014 Rise Set
Actual Time 6:45 AM EDT 6:57 PM EDT
Civil Twilight 6:16 AM EDT 7:26 PM EDT
Nautical Twilight 5:42 AM EDT 8:00 PM EDT
Astronomical Twilight 5:08 AM EDT 8:34 PM EDT
Moon No Moon Rise 9:25 AM EDT (3/21)
Length of Visible Light 13h 09m
Length of Day
12h 12m
Waning Gibbous, 75% of the Moon is Illuminated
Mar 21
Waning Gibbous
Mar 23
Last Quarter
Mar 30
New
Apr 7
First Quarter
Apr 15
Full

Hourly Weather History & Observations

Time (EDT) Temp. Windchill Dew Point Humidity Pressure Visibility Wind Dir Wind Speed Gust Speed Precip Events Conditions
12:54 AM 34.0 °F 29.8 °F 21.0 °F 59% 29.63 in 10.0 mi WSW 4.6 mph - N/A   Mostly Cloudy
1:54 AM 35.1 °F 27.9 °F 19.9 °F 54% 29.64 in 10.0 mi West 9.2 mph - N/A   Overcast
2:54 AM 34.0 °F 24.6 °F 19.9 °F 56% 29.63 in 10.0 mi West 13.8 mph 19.6 mph N/A   Overcast
3:54 AM 34.0 °F 28.8 °F 19.0 °F 54% 29.63 in 10.0 mi Variable 5.8 mph 20.7 mph N/A   Overcast
4:54 AM 33.1 °F 27.7 °F 19.0 °F 56% 29.65 in 10.0 mi SSW 5.8 mph - N/A   Mostly Cloudy
5:54 AM 33.1 °F 26.1 °F 19.0 °F 56% 29.66 in 10.0 mi SW 8.1 mph - N/A   Overcast
6:54 AM 34.0 °F 24.2 °F 17.1 °F 50% 29.68 in 10.0 mi WNW 15.0 mph 24.2 mph N/A   Mostly Cloudy
7:54 AM 35.1 °F 29.3 °F 18.0 °F 50% 29.70 in 10.0 mi Variable 6.9 mph - N/A   Overcast
8:54 AM 35.1 °F 27.9 °F 18.0 °F 50% 29.72 in 10.0 mi WNW 9.2 mph 24.2 mph N/A   Overcast
9:54 AM 34.0 °F 23.4 °F 16.0 °F 48% 29.74 in 10.0 mi WNW 17.3 mph 28.8 mph N/A   Overcast
10:54 AM 35.1 °F 27.9 °F 16.0 °F 46% 29.76 in 10.0 mi WNW 9.2 mph 25.3 mph N/A   Clear
11:54 AM 35.1 °F 24.8 °F 16.0 °F 46% 29.78 in 10.0 mi NW 17.3 mph 24.2 mph N/A   Mostly Cloudy
12:54 PM 36.0 °F 26.7 °F 17.1 °F 46% 29.79 in 10.0 mi WNW 15.0 mph 24.2 mph N/A   Overcast
1:54 PM 36.0 °F 26.7 °F 16.0 °F 44% 29.79 in 10.0 mi WNW 15.0 mph 26.5 mph N/A   Mostly Cloudy
2:54 PM 36.0 °F 27.5 °F 16.0 °F 44% 29.80 in 10.0 mi WNW 12.7 mph 25.3 mph N/A   Overcast
3:54 PM 35.1 °F 25.5 °F 17.1 °F 48% 29.82 in 10.0 mi WNW 15.0 mph 24.2 mph N/A   Overcast
4:54 PM 35.1 °F 26.4 °F 18.0 °F 50% 29.83 in 10.0 mi West 12.7 mph 24.2 mph N/A   Mostly Cloudy
5:54 PM 33.1 °F - 17.1 °F 52% 29.85 in 10.0 mi North - - N/A   Scattered Clouds
6:54 PM 33.1 °F 24.4 °F 17.1 °F 52% 29.88 in 10.0 mi West 11.5 mph 19.6 mph N/A   Clear
7:54 PM 32.0 °F 24.2 °F 16.0 °F 52% 29.90 in 10.0 mi West 9.2 mph 19.6 mph N/A   Clear
8:54 PM 32.0 °F 21.6 °F 16.0 °F 52% 29.92 in 10.0 mi West 15.0 mph 23.0 mph N/A   Clear
9:54 PM 30.9 °F 25.2 °F 14.0 °F 50% 29.94 in 10.0 mi WSW 5.8 mph - N/A   Clear
10:54 PM 30.9 °F - 12.0 °F 46% 29.96 in 10.0 mi Calm Calm - N/A   Clear
11:54 PM 30.9 °F 27.5 °F 10.9 °F 43% 29.96 in 10.0 mi Variable 3.5 mph - N/A   Clear